Precipitable_Water
0.59 0.58 0.57 0.57 0.56 0.55 0.54 0.53 0.51 0.50 0.50 0.48 0.46 0.44 0.45 0.51 0.57 0.64 0.63 0.71 0.94 1.24 1.38 1.29 1.18 1.11 1.15 1.01 1.12 1.08 0.79 0.66 0.70 0.76 0.78 0.91 0.86 0.94 1.01 0.92 1.13 1.13 1.00 1.01 1.24
0.59 0.58 0.57 0.56 0.55 0.54 0.53 0.52 0.51 0.50 0.49 0.49 0.47 0.45 0.45 0.48 0.38 0.42 0.62 0.71 1.03 1.22 1.07 0.99 0.82 0.97 0.86 0.88 0.96 0.91 0.79 0.70 0.85 0.91 0.88 0.93 0.92 0.92 0.90 0.83 0.92 1.10 1.18 1.20 1.21
0.59 0.58 0.57 0.56 0.55 0.54 0.53 0.52 0.51 0.49 0.49 0.48 0.48 0.45 0.46 0.45 0.22 0.21 0.62 0.69 0.86 1.16 1.04 0.94 0.88 0.90 0.80 0.78 0.82 0.83 0.73 0.83 0.88 0.96 0.99 0.94 0.94 1.01 0.95 0.84 0.87 0.90 1.03 1.15 1.19
0.60 0.58 0.57 0.56 0.55 0.54 0.52 0.51 0.50 0.49 0.48 0.48 0.48 0.46 0.48 0.36 0.09 0.23 0.51 0.67 0.96 1.11 0.94 0.88 0.87 0.83 0.77 0.67 0.76 0.73 0.76 0.86 0.95 1.00 0.97 0.92 1.01 0.98 1.02 0.98 1.01 1.01 1.03 1.11 1.11
0.63 0.60 0.57 0.56 0.55 0.53 0.52 0.50 0.50 0.48 0.48 0.48 0.49 0.49 0.41 0.19 0.13 0.28 0.44 0.66 0.84 0.93 0.81 0.86 0.79 0.79 0.72 0.72 0.73 0.73 0.78 0.86 0.95 1.00 0.99 1.00 0.97 1.02 1.04 1.14 1.12 1.06 0.96 1.00 1.13
0.66 0.62 0.59 0.57 0.55 0.53 0.51 0.50 0.48 0.48 0.48 0.48 0.50 0.54 0.36 0.14 0.18 0.29 0.35 0.60 0.54 0.73 0.73 0.85 0.79 0.82 0.75 0.74 0.72 0.76 0.84 0.87 0.92 0.96 0.99 0.93 0.97 1.04 1.10 1.24 1.14 1.08 0.96 0.96 1.09
0.70 0.64 0.59 0.58 0.56 0.53 0.52 0.50 0.47 0.47 0.48 0.49 0.51 0.52 0.30 0.20 0.22 0.34 0.33 0.39 0.52 0.55 0.70 0.83 0.83 0.76 0.76 0.70 0.78 0.81 0.79 0.86 0.87 0.94 0.93 1.01 0.94 0.93 1.14 1.21 1.12 1.13 1.12 1.04 1.09
0.77 0.69 0.61 0.57 0.56 0.53 0.52 0.49 0.47 0.49 0.54 0.53 0.55 0.50 0.21 0.26 0.26 0.31 0.31 0.27 0.36 0.55 0.66 0.71 0.82 0.74 0.70 0.77 0.76 0.75 0.76 0.65 0.76 0.88 0.93 0.92 0.75 0.97 1.12 1.15 1.11 1.15 1.18 1.22 1.17
0.84 0.76 0.64 0.58 0.53 0.52 0.51 0.50 0.54 0.59 0.58 0.59 0.52 0.37 0.19 0.29 0.22 0.31 0.31 0.26 0.30 0.44 0.62 0.63 0.70 0.68 0.64 0.67 0.61 0.68 0.61 0.61 0.63 0.75 0.83 0.84 0.73 0.89 1.07 1.15 1.15 1.11 1.13 1.21 1.29
0.92 0.82 0.68 0.58 0.51 0.50 0.52 0.61 0.67 0.62 0.62 0.62 0.48 0.26 0.22 0.22 0.29 0.31 0.33 0.29 0.27 0.32 0.43 0.55 0.56 0.58 0.57 0.59 0.53 0.56 0.58 0.56 0.52 0.60 0.65 0.73 0.76 0.84 0.97 1.10 1.08 1.12 1.12 1.15 1.24
0.95 0.88 0.73 0.58 0.49 0.50 0.64 0.63 0.48 0.43 0.50 0.34 0.27 0.19 0.23 0.33 0.32 0.29 0.28 0.25 0.24 0.26 0.29 0.42 0.43 0.43 0.50 0.55 0.68 0.60 0.60 0.54 0.56 0.58 0.54 0.62 0.65 0.76 0.93 0.97 1.00 1.09 1.11 1.13 1.22
0.97 0.91 0.77 0.56 0.49 0.53 0.67 0.49 0.47 0.50 0.32 0.42 0.39 0.31 0.35 0.36 0.22 0.25 0.26 0.19 0.18 0.16 0.23 0.29 0.29 0.46 0.57 0.57 0.58 0.59 0.57 0.56 0.55 0.57 0.51 0.52 0.56 0.68 0.82 0.83 0.87 0.92 1.00 1.11 1.22
0.98 0.92 0.78 0.55 0.50 0.54 0.54 0.55 0.64 0.60 0.34 0.33 0.35 0.30 0.32 0.32 0.22 0.20 0.21 0.20 0.18 0.16 0.16 0.20 0.26 0.40 0.50 0.50 0.47 0.55 0.55 0.59 0.50 0.47 0.50 0.45 0.49 0.63 0.71 0.74 0.81 0.85 0.94 1.04 1.15
1.00 0.93 0.77 0.53 0.45 0.44 0.51 0.64 0.65 0.62 0.31 0.28 0.26 0.30 0.31 0.35 0.23 0.27 0.22 0.18 0.15 0.14 0.15 0.18 0.27 0.32 0.36 0.40 0.44 0.44 0.62 0.58 0.52 0.41 0.37 0.41 0.28 0.45 0.61 0.57 0.64 0.76 0.80 0.92 1.07
1.02 0.94 0.72 0.58 0.42 0.36 0.57 0.62 0.67 0.59 0.21 0.30 0.27 0.40 0.36 0.28 0.28 0.23 0.22 0.18 0.14 0.13 0.16 0.15 0.20 0.24 0.27 0.31 0.44 0.42 0.60 0.55 0.50 0.42 0.37 0.34 0.31 0.34 0.42 0.42 0.48 0.65 0.65 0.82 1.02
1.02 0.91 0.68 0.57 0.50 0.44 0.59 0.64 0.59 0.35 0.25 0.29 0.27 0.25 0.25 0.27 0.24 0.29 0.22 0.26 0.23 0.16 0.14 0.19 0.23 0.25 0.27 0.31 0.39 0.45 0.44 0.47 0.45 0.36 0.29 0.33 0.29 0.30 0.37 0.38 0.39 0.51 0.60 0.76 0.96
1.02 0.76 0.72 0.64 0.39 0.51 0.62 0.55 0.33 0.30 0.40 0.28 0.24 0.25 0.25 0.23 0.22 0.23 0.22 0.21 0.16 0.12 0.12 0.16 0.17 0.20 0.25 0.28 0.31 0.32 0.30 0.27 0.24 0.22 0.26 0.33 0.27 0.29 0.36 0.37 0.42 0.54 0.69 0.81 0.96
0.97 0.75 0.81 0.66 0.55 0.66 0.59 0.41 0.31 0.37 0.36 0.34 0.31 0.28 0.24 0.25 0.24 0.22 0.23 0.21 0.19 0.15 0.13 0.13 0.13 0.17 0.19 0.22 0.20 0.21 0.22 0.20 0.18 0.24 0.28 0.26 0.17 0.21 0.31 0.37 0.60 0.74 0.80 0.86 0.96
0.81 0.85 0.77 0.75 0.58 0.71 0.49 0.32 0.39 0.38 0.39 0.29 0.29 0.24 0.23 0.23 0.23 0.21 0.20 0.20 0.20 0.16 0.12 0.12 0.15 0.21 0.20 0.21 0.24 0.23 0.19 0.23 0.21 0.23 0.16 0.16 0.19 0.26 0.47 0.59 0.67 0.70 0.79 0.84 0.94
0.68 0.80 0.67 0.69 0.58 0.56 0.43 0.37 0.42 0.45 0.42 0.34 0.23 0.23 0.18 0.21 0.20 0.20 0.20 0.22 0.22 0.20 0.20 0.17 0.16 0.19 0.19 0.22 0.23 0.25 0.29 0.22 0.19 0.15 0.16 0.17 0.17 0.28 0.41 0.53 0.60 0.65 0.71 0.81 0.94
0.71 0.70 0.67 0.67 0.57 0.40 0.33 0.38 0.41 0.45 0.40 0.31 0.25 0.22 0.23 0.21 0.23 0.21 0.22 0.23 0.23 0.20 0.22 0.19 0.21 0.19 0.21 0.22 0.23 0.25 0.22 0.21 0.20 0.19 0.16 0.17 0.22 0.31 0.42 0.59 0.59 0.62 0.71 0.76 0.81
0.68 0.59 0.74 0.68 0.35 0.38 0.38 0.42 0.48 0.44 0.46 0.38 0.35 0.27 0.27 0.34 0.32 0.30 0.25 0.24 0.22 0.22 0.19 0.22 0.22 0.18 0.21 0.24 0.28 0.27 0.25 0.24 0.19 0.25 0.18 0.17 0.22 0.44 0.51 0.59 0.60 0.62 0.64 0.72 0.79
0.69 0.74 0.76 0.63 0.32 0.27 0.42 0.42 0.47 0.45 0.44 0.40 0.36 0.39 0.44 0.43 0.37 0.33 0.25 0.24 0.20 0.22 0.23 0.23 0.19 0.21 0.23 0.26 0.27 0.24 0.24 0.22 0.23 0.23 0.24 0.19 0.24 0.49 0.61 0.71 0.74 0.70 0.70 0.72 0.79
0.78 0.65 0.68 0.66 0.52 0.38 0.40 0.43 0.45 0.52 0.44 0.45 0.44 0.47 0.47 0.47 0.48 0.32 0.26 0.28 0.22 0.24 0.25 0.24 0.23 0.31 0.25 0.31 0.37 0.30 0.28 0.27 0.24 0.24 0.26 0.20 0.31 0.50 0.56 0.69 0.75 0.80 0.86 0.91 0.92
0.78 0.73 0.73 0.54 0.50 0.42 0.44 0.51 0.47 0.47 0.48 0.47 0.43 0.44 0.45 0.46 0.46 0.41 0.35 0.30 0.30 0.29 0.26 0.26 0.29 0.34 0.34 0.33 0.33 0.34 0.33 0.26 0.26 0.29 0.26 0.34 0.34 0.56 0.62 0.70 0.79 0.88 0.91 1.00 1.07
0.67 0.74 0.77 0.66 0.62 0.48 0.42 0.46 0.47 0.52 0.51 0.43 0.44 0.46 0.48 0.51 0.55 0.46 0.43 0.42 0.32 0.31 0.28 0.29 0.35 0.34 0.33 0.37 0.42 0.40 0.36 0.28 0.27 0.31 0.40 0.39 0.50 0.69 0.82 0.85 0.81 0.82 0.85 0.93 1.02
0.69 0.85 0.81 0.69 0.63 0.50 0.44 0.49 0.51 0.57 0.57 0.59 0.57 0.50 0.51 0.54 0.60 0.63 0.61 0.52 0.48 0.37 0.34 0.33 0.39 0.35 0.39 0.40 0.40 0.40 0.47 0.50 0.50 0.52 0.52 0.44 0.73 0.77 0.79 0.79 0.80 0.84 0.85 0.92 0.98
Wind_Speed
11 11 12 12 11 10 9 9 9 8 7 6 5 5 5 6 7 8 7 7 7 8 5 4 3 5 5 6 6 7 7 11 12 13 12 10 11 11 11 10 7 5 7 12 14
12 12 12 12 12 12 11 10 10 9 8 8 7 6 6 6 8 10 9 9 9 9 6 4 2 3 4 5 5 6 7 8 9 10 10 9 9 10 10 10 9 8 9 13 14
12 12 13 13 13 13 13 12 11 11 10 9 8 7 7 6 8 9 10 11 12 11 7 3 1 1 3 4 4 6 7 6 8 8 8 8 9 9 10 7 8 8 10 12 13
12 13 13 14 14 14 14 13 13 13 12 11 9 9 8 7 7 9 11 13 13 13 9 6 3 2 1 3 3 3 5 4 6 7 7 7 8 8 8 11 9 9 10 11 12
12 13 14 14 14 15 15 15 14 14 13 12 11 10 9 10 10 7 11 14 15 14 12 9 5 2 0 1 1 1 3 3 4 5 6 6 6 8 6 10 10 10 9 10 10
13 13 14 15 15 15 15 15 15 15 14 14 13 11 11 12 10 9 10 14 17 16 14 12 7 4 3 1 2 2 0 3 2 3 3 3 4 3 5 7 8 8 8 8 9
13 14 14 15 16 16 16 16 16 16 16 15 14 13 14 14 11 12 10 14 17 17 15 14 10 9 4 3 2 1 2 2 1 0 1 2 1 2 3 5 5 6 7 7 8
13 14 15 15 16 16 16 17 16 16 15 15 14 14 14 13 13 14 12 13 16 17 14 14 12 11 9 4 4 4 3 2 1 1 1 3 5 1 3 4 4 5 5 6 7
13 14 15 16 16 16 16 16 15 14 13 14 14 14 13 13 15 14 13 13 16 17 16 14 13 12 11 10 7 6 4 2 1 3 4 4 6 0 3 5 4 4 4 4 5
13 14 15 16 15 15 15 15 13 13 14 14 15 14 15 14 14 15 14 14 14 16 15 16 15 15 15 13 10 7 6 4 1 2 4 4 4 1 4 6 5 5 5 5 6
13 14 15 15 14 14 13 13 14 15 17 16 13 14 13 13 15 16 16 15 14 17 18 18 18 19 18 17 9 8 7 7 3 2 6 4 7 5 6 6 7 7 7 7 7
14 14 15 14 12 12 12 13 12 12 14 18 19 17 15 14 15 17 17 16 16 17 18 16 21 20 20 16 15 12 11 9 6 5 8 7 7 5 6 8 8 8 9 9 9
13 14 15 13 11 10 11 11 12 11 13 14 16 16 15 15 15 18 19 18 17 18 18 20 18 20 18 19 18 16 14 10 8 8 8 9 9 5 5 7 9 10 10 11 11
13 14 14 12 8 9 10 10 11 11 12 11 14 15 16 15 15 14 17 15 15 19 18 19 16 17 22 23 21 19 16 12 10 9 9 7 10 8 5 9 11 11 11 12 13
14 14 13 9 9 8 8 9 9 10 11 11 13 14 15 16 14 15 16 14 15 16 17 17 17 19 21 22 21 19 12 12 10 11 11 13 9 9 10 9 6 9 11 12 14
14 15 12 8 8 9 9 8 9 11 8 9 11 16 17 15 14 14 16 13 10 12 18 13 14 18 19 19 19 18 15 13 12 13 13 14 9 10 6 7 9 6 9 9 12
15 14 9 8 7 8 9 9 9 9 9 10 12 16 18 15 12 15 16 16 13 14 15 17 15 15 16 16 15 18 17 15 14 14 13 5 10 12 13 10 7 9 5 5 9
14 11 8 8 8 8 10 10 9 6 7 8 11 15 15 14 13 13 16 16 14 14 13 16 16 17 16 19 14 18 19 14 12 12 10 5 9 10 6 8 5 3 3 3 6
13 9 9 8 9 11 11 10 5 8 7 10 12 15 13 13 9 12 14 14 14 15 12 16 13 17 13 16 13 13 14 11 11 9 11 11 6 6 1 1 1 1 1 2 4
10 10 9 9 10 12 12 9 8 7 8 11 11 12 14 14 11 10 11 11 11 13 11 11 13 14 14 14 13 10 12 10 10 7 8 3 5 1 2 1 1 0 1 1 3
11 11 10 11 11 12 12 9 9 8 9 10 10 12 13 13 11 10 8 5 11 12 11 9 8 11 14 16 15 13 13 10 6 6 7 5 3 1 2 0 1 1 2 3 4
12 13 13 13 13 12 13 10 8 9 10 9 9 11 11 10 9 8 7 5 9 14 13 11 5 12 11 9 10 13 15 14 8 7 5 6 3 2 0 1 0 1 2 3 4
14 13 14 14 13 15 13 12 11 11 10 10 11 9 9 7 7 7 7 5 13 15 14 13 7 10 10 9 9 11 9 10 8 4 4 6 4 3 3 1 0 1 2 2 3
15 15 15 16 15 14 15 15 12 13 11 11 9 10 10 7 6 8 9 9 13 13 8 11 7 3 7 5 6 8 8 11 11 7 6 7 5 3 2 2 0 1 2 2 2
18 16 15 16 18 17 17 14 15 14 13 12 11 10 9 7 7 7 8 11 10 12 11 10 8 6 3 3 5 7 8 9 12 5 5 6 3 1 3 2 0 1 3 3 3
18 17 17 16 17 18 17 18 16 14 14 15 12 11 9 8 4 8 9 8 8 13 15 11 7 8 4 5 6 7 7 9 10 8 7 6 5 3 4 2 2 3 4 3 3
20 19 18 17 17 18 18 17 18 15 15 13 11 12 10 7 6 6 7 7 9 12 13 12 9 9 6 5 6 9 8 8 8 8 6 8 4 6 5 5 4 4 6 5 6
Wind_Direction
270 270 268 269 270 272 274 275 276 278 280 285 284 281 268 253 240 209 207 188 181 170 154 128 71 60 66 53 57 68 60 61 56 54 65 76 67 59 56 86 70 73 130 139 149
271 269 269 268 268 269 268 269 269 270 272 274 274 272 271 257 229 217 208 200 189 180 172 163 90 59 56 57 68 53 54 63 51 55 63 73 68 69 64 71 66 81 113 139 150
274 272 269 268 267 267 266 265 265 264 265 267 268 266 263 255 227 210 211 205 198 193 200 194 161 44 42 68 66 55 64 62 55 54 64 73 70 64 69 54 61 93 124 143 154
276 274 272 270 267 265 264 263 262 260 260 261 261 261 256 228 214 214 213 206 200 200 204 206 216 239 48 79 63 48 69 65 55 70 71 78 74 62 56 44 73 94 117 139 156
279 276 274 272 269 265 262 261 260 259 256 255 254 253 240 227 230 223 217 210 204 207 211 213 223 228 358 38 13 314 55 53 75 78 74 74 68 50 60 55 77 94 112 128 149
282 280 277 274 270 267 263 260 259 257 254 251 248 246 236 234 228 224 222 209 209 210 213 216 223 229 247 259 324 335 342 110 109 82 78 55 61 38 57 78 87 99 115 127 137
285 283 280 277 272 267 263 261 258 255 251 247 242 239 237 236 232 226 229 215 212 212 217 219 224 227 237 241 299 162 175 147 128 3 30 359 307 333 108 113 104 110 117 132 140
289 287 283 281 275 268 263 260 257 252 247 239 233 235 237 232 231 228 228 215 212 215 221 221 222 232 233 236 236 219 237 218 43 290 331 282 338 114 158 152 139 135 130 136 156
293 292 288 284 277 269 263 258 251 243 235 227 231 234 235 230 226 222 219 214 208 215 218 218 220 227 221 235 221 225 226 245 164 341 310 264 313 146 201 178 174 170 168 169 176
299 298 294 288 278 270 261 247 237 235 232 232 234 232 232 223 223 219 216 211 210 210 214 219 221 224 225 226 234 211 214 224 285 1 328 285 282 195 196 209 216 218 218 219 211
300 303 302 294 280 268 250 237 238 235 231 233 232 234 227 229 219 217 212 210 212 214 217 217 222 222 221 226 246 235 234 232 257 313 326 316 288 233 213 225 234 238 239 231 227
300 302 304 298 282 260 241 237 236 240 241 232 233 232 231 226 216 211 211 213 216 218 218 219 227 224 228 227 228 229 231 236 266 265 301 315 291 239 222 242 244 246 245 236 228
300 303 305 298 278 247 239 231 233 240 235 225 224 225 219 216 216 207 209 215 219 220 220 226 226 226 225 221 228 231 237 242 267 293 271 299 281 220 251 257 261 260 256 244 231
299 303 305 299 260 246 231 225 238 231 231 215 217 215 210 214 211 207 210 215 224 224 223 230 228 222 224 228 225 236 231 246 260 281 281 300 289 271 248 273 264 263 261 247 232
295 301 299 281 259 237 224 230 224 218 222 211 207 205 203 209 195 208 209 219 222 219 219 221 223 221 224 226 222 233 233 243 256 270 276 275 267 283 278 280 301 258 266 253 231
292 297 291 259 241 235 222 225 212 217 220 204 204 201 198 207 204 201 209 220 224 216 222 235 230 225 225 226 223 227 232 239 255 266 268 263 265 280 298 308 301 284 287 254 225
291 290 266 243 233 221 210 202 208 230 198 192 196 192 198 198 199 203 206 211 216 213 217 221 220 218 224 212 218 222 229 242 245 244 254 259 271 274 290 296 309 302 289 247 221
290 273 243 233 223 207 195 198 217 193 195 185 183 187 194 195 208 205 207 212 221 229 217 213 215 213 207 215 214 219 222 231 236 246 253 254 278 278 291 281 296 286 272 238 216
282 239 230 224 210 198 197 204 200 183 183 180 173 179 189 191 199 195 204 213 215 223 227 214 220 198 205 206 214 195 218 231 259 253 265 274 279 275 305 90 216 239 204 207 216
256 230 223 216 197 198 204 214 195 193 190 188 177 187 176 180 187 195 193 214 216 214 227 210 202 203 194 198 204 214 201 212 230 255 271 234 255 223 13 22 358 119 186 203 233
231 222 214 200 199 199 205 204 199 195 190 191 187 177 178 177 195 192 190 185 204 187 193 181 204 180 189 203 196 203 213 225 258 264 275 256 183 109 1 299 55 42 276 277 272
226 218 208 205 204 203 205 196 192 193 186 185 186 176 176 182 192 203 197 205 186 174 177 178 173 167 176 186 212 212 230 223 228 212 247 267 250 208 212 135 93 12 326 314 279
225 219 208 208 209 204 200 201 198 192 183 178 176 179 175 175 182 192 185 172 168 172 169 173 184 152 161 166 177 201 207 221 230 252 214 256 160 181 161 165 356 344 340 327 307
219 214 209 211 212 211 203 201 198 193 197 188 178 177 175 173 176 166 159 154 166 174 173 178 180 220 167 145 173 200 213 221 222 233 189 221 137 158 181 172 93 358 337 321 320
215 214 213 208 209 208 204 202 200 194 195 191 184 190 187 177 171 166 169 161 179 183 187 197 176 184 164 180 220 235 226 215 215 229 226 146 189 116 179 182 265 354 330 308 300
216 215 211 214 207 207 199 201 201 194 197 189 199 188 193 181 181 166 174 190 186 190 199 206 198 205 209 218 234 218 216 205 211 223 224 218 183 197 195 209 248 309 332 301 294
213 213 212 205 205 206 202 200 199 202 197 201 200 195 185 180 192 190 194 186 186 184 188 199 193 213 194 226 232 218 201 205 203 216 229 221 184 218 227 257 273 293 307 287 282